FW0954 Weather Reports


time (UTC)temp
C
wind
direction
speed
KPH
gust
KPH
rain 1hr
cm
rain 24hr
cm
rain mn
cm
humidity
%
barometer
mb
20260902162002 33 167 1.6 4.8 0.00 0.00 0.00 64 1016.3
20260902161503 32 166 1.6 4.8 0.00 0.00 0.00 65 1016.3
20260902161002 32 179 1.6 6.4 0.00 0.00 0.00 66 1016.4
20260902160502 32 166 0.0 6.4 0.00 0.00 0.00 66 1016.4
20260902160003 32 129 0.0 4.8 0.00 0.00 0.00 68 1016.3
20260902155502 32 159 0.0 3.2 0.00 0.00 0.00 68 1016.4
20260902155003 32 165 0.0 3.2 0.00 0.00 0.00 69 1016.4
20260902154503 31 120 0.0 3.2 0.00 0.00 0.00 71 1016.4
20260902154002 31 106 0.0 3.2 0.00 0.00 0.00 70 1016.4
20260902153502 31 98 0.0 3.2 0.00 0.00 0.00 70 1016.4
20260902153003 31 80 0.0 3.2 0.00 0.00 0.00 70 1016.4
20260902152502 31 83 0.0 3.2 0.00 0.00 0.00 71 1016.5
20260902151503 31 109 0.0 6.4 0.00 0.00 0.00 72 1016.4
20260902151003 31 95 0.0 6.4 0.00 0.00 0.00 72 1016.3
20260902150503 31 122 0.0 6.4 0.00 0.00 0.00 72 1016.4
20260902150002 30 124 1.6 6.4 0.00 0.00 0.00 72 1016.3
20260902145502 30 92 1.6 4.8 0.00 0.00 0.00 73 1016.3
20260902144002 30 116 0.0 4.8 0.00 0.00 0.00 73 1016.3
20260902143502 30 135 0.0 4.8 0.00 0.00 0.00 74 1016.3
20260902143003 30 88 0.0 6.4 0.00 0.00 0.00 74 1016.3
20260902142003 30 122 0.0 3.2 0.00 0.00 0.00 75 1016.3
20260902141502 30 116 0.0 4.8 0.00 0.00 0.00 75 1016.2
20260902141003 30 119 0.0 4.8 0.00 0.00 0.00 76 1016.2
20260902140502 29 170 0.0 4.8 0.00 0.00 0.00 76 1016.2
20260902140003 28 171 0.0 4.8 0.00 0.00 0.00 77 1016.1
20260902135003 28 140 0.0 1.6 0.00 0.00 0.00 78 1016.2
20260902134502 28 141 0.0 1.6 0.00 0.00 0.00 79 1016.1
20260902134003 27 133 0.0 1.6 0.00 0.00 0.00 80 1016.0
20260902133502 27 115 0.0 1.6 0.00 0.00 0.00 81 1015.9
20260902133003 27 128 0.0 3.2 0.00 0.00 0.00 81 1016.0
20260902132503 26 135 0.0 3.2 0.00 0.00 0.00 81 1015.9
20260902132003 26 96 0.0 3.2 0.00 0.00 0.00 82 1016.0
20260902131502 26 79 0.0 4.8 0.00 0.00 0.00 82 1016.0
20260902131003 26 68 0.0 4.8 0.00 0.00 0.00 83 1015.9
20260902130502 26 100 0.0 3.2 0.00 0.00 0.00 84 1015.9
20260902130003 26 149 0.0 3.2 0.00 0.00 0.00 84 1015.9
20260902125502 26 134 0.0 3.2 0.00 0.00 0.00 85 1015.9
20260902125003 26 107 0.0 3.2 0.00 0.00 0.00 85 1015.9
20260902124002 25 106 0.0 3.2 0.00 0.00 0.00 85 1016.0
20260902123503 25 114 0.0 3.2 0.00 0.00 0.00 86 1015.8
20260902123003 25 137 0.0 1.6 0.00 0.00 0.00 86 1015.8
20260902122502 25 137 0.0 1.6 0.00 0.00 0.00 86 1015.7
20260902122003 25 137 0.0 1.6 0.00 0.00 0.00 86 1015.8
20260902121503 25 0 0.0 0.0 0.00 0.00 0.00 86 1015.8
20260902120503 25 0 0.0 0.0 0.00 0.00 0.00 86 1015.8
20260902120003 25 0 0.0 0.0 0.00 0.00 0.00 86 1015.7
20260902115503 25 0 0.0 0.0 0.00 0.00 0.00 86 1015.7
20260902115003 25 0 0.0 0.0 0.00 0.00 0.00 86 1015.6
20260902114502 25 0 0.0 0.0 0.00 0.00 0.00 86 1015.6
20260902114003 25 166 0.0 1.6 0.00 0.00 0.00 87 1015.6
20260902113003 25 0 0.0 0.0 0.00 0.00 0.00 87 1015.8
20260902112503 25 0 0.0 0.0 0.00 0.00 0.00 87 1015.8
20260902112003 25 0 0.0 0.0 0.00 0.00 0.00 87 1015.7
20260902111503 25 0 0.0 0.0 0.00 0.00 0.00 86 1015.7
20260902111003 25 0 0.0 0.0 0.00 0.00 0.00 86 1015.7
20260902110503 25 0 0.0 0.0 0.00 0.00 0.00 86 1015.6
20260902105503 25 0 0.0 0.0 0.00 0.00 0.00 86 1015.7
20260902105003 25 0 0.0 0.0 0.00 0.00 0.00 85 1015.7
20260902104504 25 0 0.0 0.0 0.00 0.00 0.00 85 1015.6
20260902104003 25 0 0.0 0.0 0.00 0.00 0.00 85 1015.5
20260902103503 25 0 0.0 0.0 0.00 0.00 0.00 85 1015.5
20260902103003 25 0 0.0 0.0 0.00 0.00 0.00 84 1015.6
20260902102503 25 0 0.0 0.0 0.00 0.00 0.00 84 1015.6
20260902102003 25 0 0.0 0.0 0.00 0.00 0.00 84 1015.6
20260902101003 25 0 0.0 0.0 0.00 0.00 0.00 84 1015.6
20260902100503 25 0 0.0 0.0 0.00 0.00 0.00 84 1015.6
20260902100003 25 0 0.0 0.0 0.00 0.00 0.00 84 1015.6
20260902095002 25 0 0.0 0.0 0.00 0.00 0.00 83 1015.6
20260902094503 25 0 0.0 0.0 0.00 0.00 0.00 83 1015.6
20260902093503 25 0 0.0 0.0 0.00 0.00 0.00 83 1015.5
20260902093003 25 0 0.0 0.0 0.00 0.00 0.00 82 1015.5
20260902092502 25 0 0.0 0.0 0.00 0.00 0.00 82 1015.5
20260902092003 25 0 0.0 0.0 0.00 0.00 0.00 82 1015.4
20260902091503 25 0 0.0 0.0 0.00 0.00 0.00 82 1015.4
20260902091003 26 0 0.0 0.0 0.00 0.00 0.00 82 1015.4
20260902090503 26 0 0.0 0.0 0.00 0.00 0.00 82 1015.4
20260902090004 26 0 0.0 0.0 0.00 0.00 0.00 81 1015.4
20260902085503 26 0 0.0 0.0 0.00 0.00 0.00 80 1015.3
20260902085003 26 0 0.0 0.0 0.00 0.00 0.00 80 1015.3
20260902084503 26 0 0.0 0.0 0.00 0.00 0.00 80 1015.3
20260902083503 26 0 0.0 0.0 0.00 0.00 0.00 80 1015.3
20260902083003 26 0 0.0 0.0 0.00 0.00 0.00 79 1015.3
20260902082503 26 0 0.0 0.0 0.00 0.00 0.00 79 1015.4
20260902081503 26 0 0.0 0.0 0.00 0.00 0.00 79 1015.3
20260902080504 27 167 0.0 3.2 0.00 0.00 0.00 79 1015.3
20260902080003 27 163 0.0 3.2 0.00 0.00 0.00 79 1015.3
20260902075003 27 182 0.0 1.6 0.00 0.00 0.00 79 1015.4
20260902074503 27 182 0.0 1.6 0.00 0.00 0.00 79 1015.4
20260902074003 27 182 0.0 1.6 0.00 0.00 0.00 79 1015.4
20260902073504 27 182 0.0 1.6 0.00 0.00 0.00 79 1015.4
20260902073003 27 182 0.0 1.6 0.00 0.00 0.00 79 1015.3
20260902072503 27 0 0.0 0.0 0.00 0.00 0.00 79 1015.5
20260902072003 27 182 0.0 1.6 0.00 0.00 0.00 78 1015.5
20260902071503 27 182 0.0 3.2 0.00 0.00 0.00 78 1015.4
20260902070504 27 182 0.0 1.6 0.00 0.00 0.00 78 1015.5
20260902065503 27 0 0.0 0.0 0.00 0.00 0.00 77 1015.6
20260902064503 27 182 0.0 3.2 0.00 0.00 0.00 77 1015.6
20260902064003 27 182 0.0 3.2 0.00 0.00 0.00 77 1015.6
20260902063504 27 182 0.0 1.6 0.00 0.00 0.00 76 1015.5
20260902063003 28 179 0.0 3.2 0.00 0.00 0.00 76 1015.5
20260902062503 28 175 0.0 3.2 0.00 0.00 0.00 76 1015.5
20260902062004 28 178 0.0 6.4 0.00 0.00 0.00 76 1015.4
20260902061003 28 176 0.0 3.2 0.00 0.00 0.00 75 1015.5
20260902060503 28 173 0.0 3.2 0.00 0.00 0.00 75 1015.4
20260902060003 28 174 0.0 3.2 0.00 0.00 0.00 75 1015.4
20260902055503 28 171 0.0 3.2 0.00 0.00 0.00 74 1015.5
20260902055004 28 176 0.0 4.8 0.00 0.00 0.00 74 1015.4
20260902054503 28 181 1.6 4.8 0.00 0.00 0.00 74 1015.5
20260902054003 28 182 1.6 4.8 0.00 0.00 0.00 74 1015.5
20260902053504 28 177 1.6 6.4 0.00 0.00 0.00 73 1015.4
20260902053003 28 176 1.6 6.4 0.00 0.00 0.00 73 1015.4
20260902052502 28 174 1.6 6.4 0.00 0.00 0.00 73 1015.4
20260902052001 28 175 1.6 4.8 0.00 0.00 0.00 73 1015.4
20260902051501 29 191 0.0 6.4 0.00 0.00 0.00 72 1015.3
20260902050501 29 195 0.0 3.2 0.00 0.00 0.00 72 1015.4
20260902050004 29 173 0.0 3.2 0.00 0.00 0.00 71 1015.5
20260902045002 30 168 1.6 8.0 0.00 0.00 0.00 71 1015.4
20260902044501 30 173 1.6 8.0 0.00 0.00 0.00 70 1015.3
20260902044001 30 177 1.6 6.4 0.00 0.00 0.00 70 1015.3
20260902043501 30 181 1.6 6.4 0.00 0.00 0.00 70 1015.3
20260902043001 30 173 1.6 6.4 0.00 0.00 0.00 69 1015.3
20260902042502 30 172 1.6 6.4 0.00 0.00 0.00 69 1015.3
20260902042001 30 181 1.6 9.7 0.00 0.00 0.00 69 1015.3
20260902041502 30 185 3.2 9.7 0.00 0.00 0.00 68 1015.3
20260902040001 30 172 3.2 11.3 0.00 0.00 0.00 67 1015.2
20260902035501 31 175 3.2 9.7 0.00 0.00 0.00 66 1015.1
20260902035002 31 169 3.2 9.7 0.00 0.00 0.00 66 1014.9
20260902034502 31 166 4.8 14.5 0.00 0.00 0.00 66 1015.1
20260902034001 31 166 3.2 14.5 0.00 0.00 0.00 66 1015.0
20260902033502 31 157 3.2 12.9 0.00 0.00 0.00 66 1014.8
20260902033001 30 149 1.6 12.9 0.00 0.00 0.00 68 1014.7
20260902032501 30 168 0.0 8.0 0.00 0.00 0.00 71 1014.7
20260902032001 30 0 0.0 0.0 0.00 0.00 0.00 69 1014.4
20260902031501 30 0 0.0 0.0 0.00 0.00 0.00 68 1014.3
20260902031001 30 0 0.0 0.0 0.00 0.00 0.00 66 1014.3
20260902030501 31 0 0.0 0.0 0.00 0.00 0.00 65 1014.2
20260902030002 31 0 0.0 0.0 0.00 0.00 0.00 65 1014.2
20260902025501 31 0 0.0 0.0 0.00 0.00 0.00 64 1014.1
20260902025001 31 0 0.0 0.0 0.00 0.00 0.00 63 1014.0
20260902024502 31 0 0.0 0.0 0.00 0.00 0.00 62 1014.1
20260902024001 31 0 0.0 0.0 0.00 0.00 0.00 61 1014.0
20260902023002 32 0 0.0 0.0 0.00 0.00 0.00 61 1013.9
20260902022502 32 182 0.0 3.2 0.00 0.00 0.00 60 1013.8
20260902022002 32 176 0.0 3.2 0.00 0.00 0.00 60 1013.7
20260902021501 32 187 0.0 4.8 0.00 0.00 0.00 60 1013.6
20260902021002 32 168 0.0 4.8 0.00 0.00 0.00 59 1013.6
20260902015501 33 159 1.6 11.3 0.00 0.00 0.00 59 1013.4
20260902015001 33 103 0.0 3.2 0.00 0.00 0.00 59 1013.3
20260902014501 33 103 0.0 3.2 0.00 0.00 0.00 58 1013.3
20260902013501 33 85 0.0 3.2 0.00 0.00 0.00 57 1013.2
20260902012001 33 99 0.0 6.4 0.00 0.00 0.00 57 1013.1
20260902011502 33 117 0.0 6.4 0.00 0.00 0.00 57 1013.0
20260902010501 33 113 0.0 3.2 0.00 0.00 0.00 58 1012.9
20260902010001 33 111 0.0 3.2 0.00 0.00 0.00 59 1012.9
20260902005501 33 80 0.0 4.8 0.00 0.00 0.00 58 1013.0
20260902005002 33 66 0.0 4.8 0.00 0.00 0.00 58 1013.0
20260902004502 33 90 0.0 1.6 0.00 0.00 0.00 58 1013.1
20260902004002 34 0 0.0 0.0 0.00 0.00 0.00 56 1012.8
20260902003501 34 0 0.0 0.0 0.00 0.00 0.00 55 1012.9
20260902003001 34 0 0.0 0.0 0.00 0.00 0.00 54 1012.9
20260902002502 35 0 0.0 0.0 0.00 0.00 0.00 54 1013.0
20260902002002 35 0 0.0 0.0 0.00 0.00 0.00 54 1012.9
20260902001502 35 0 0.0 0.0 0.00 0.00 0.00 54 1012.9
20260902001002 35 0 0.0 0.0 0.00 0.00 0.00 53 1013.0
20260902000502 35 0 0.0 0.0 0.00 0.00 0.00 54 1013.1
20260902000002 35 0 0.0 0.0 0.00 0.00 0.00 53 1013.1
20260901235002 36 153 0.0 3.2 0.00 0.00 0.00 52 1013.1
20260901234502 36 0 0.0 0.0 0.00 0.00 0.00 52 1013.2
20260901234001 36 0 0.0 0.0 0.00 0.00 0.00 52 1013.3
20260901233002 36 45 0.0 4.8 0.00 0.00 0.00 51 1013.4
20260901232502 36 78 0.0 4.8 0.00 0.00 0.00 51 1013.4
20260901232001 36 103 0.0 6.4 0.00 0.00 0.00 51 1013.4
20260901231502 36 113 0.0 6.4 0.00 0.00 0.00 52 1013.4
20260901231001 36 126 0.0 3.2 0.00 0.00 0.00 53 1013.4
20260901230502 36 125 0.0 3.2 0.00 0.00 0.00 52 1013.4
20260901230002 36 115 0.0 4.8 0.00 0.00 0.00 52 1013.5
20260901225502 36 110 0.0 4.8 0.00 0.00 0.00 51 1013.4
20260901225002 36 108 0.0 3.2 0.00 0.00 0.00 50 1013.5
20260901224502 36 114 0.0 3.2 0.00 0.00 0.00 51 1013.4
20260901224002 36 135 0.0 1.6 0.00 0.00 0.00 49 1013.4
20260901223502 36 166 0.0 1.6 0.00 0.00 0.00 50 1013.5
20260901223002 36 151 0.0 1.6 0.00 0.00 0.00 50 1013.5
20260901222501 36 156 0.0 3.2 0.00 0.00 0.00 49 1013.5
20260901222002 37 151 0.0 3.2 0.00 0.00 0.00 49 1013.5
20260901221502 37 136 0.0 3.2 0.00 0.00 0.00 48 1013.6
20260901221001 37 127 0.0 3.2 0.00 0.00 0.00 50 1013.6
20260901220502 36 123 0.0 3.2 0.00 0.00 0.00 50 1013.6
20260901220001 36 110 0.0 3.2 0.00 0.00 0.00 50 1013.6
20260901215502 36 96 0.0 1.6 0.00 0.00 0.00 50 1013.7
20260901215001 36 95 0.0 1.6 0.00 0.00 0.00 50 1013.7
20260901214502 36 92 0.0 3.2 0.00 0.00 0.00 50 1013.8
20260901213502 36 126 0.0 4.8 0.00 0.00 0.00 49 1013.8
20260901213002 36 158 0.0 4.8 0.00 0.00 0.00 48 1013.8
20260901212502 37 114 0.0 1.6 0.00 0.00 0.00 48 1013.9
20260901212002 37 162 0.0 6.4 0.00 0.00 0.00 47 1014.0
20260901211502 37 168 1.6 6.4 0.00 0.00 0.00 47 1014.0
20260901211001 38 189 1.6 6.4 0.00 0.00 0.00 46 1014.0
20260901210502 38 225 1.6 6.4 0.00 0.00 0.00 45 1014.1
20260901210002 38 321 0.0 4.8 0.00 0.00 0.00 46 1014.1
20260901205502 39 121 0.0 4.8 0.00 0.00 0.00 45 1014.1
20260901205002 39 129 1.6 4.8 0.00 0.00 0.00 45 1014.1
20260901204502 38 131 0.0 6.4 0.00 0.00 0.00 46 1014.3
20260901204002 38 148 1.6 6.4 0.00 0.00 0.00 46 1014.2
20260901203502 38 232 1.6 4.8 0.00 0.00 0.00 47 1014.2
20260901203001 37 277 1.6 4.8 0.00 0.00 0.00 47 1014.3
20260901202502 38 48 1.6 4.8 0.00 0.00 0.00 46 1014.3
20260901202002 38 100 0.0 4.8 0.00 0.00 0.00 47 1014.4
20260901201502 38 119 0.0 3.2 0.00 0.00 0.00 46 1014.4
20260901201002 38 156 1.6 6.4 0.00 0.00 0.00 47 1014.5
20260901200002 38 160 1.6 6.4 0.00 0.00 0.00 47 1014.6
20260901195002 38 233 0.0 4.8 0.00 0.00 0.00 48 1014.7
20260901194002 38 94 1.6 4.8 0.00 0.00 0.00 48 1014.9
20260901193502 37 98 1.6 6.4 0.00 0.00 0.00 49 1014.9
20260901193002 37 101 1.6 6.4 0.00 0.00 0.00 49 1014.9
20260901192502 37 97 1.6 6.4 0.00 0.00 0.00 49 1015.1
20260901192002 37 89 1.6 6.4 0.00 0.00 0.00 49 1015.2
20260901191502 37 338 1.6 6.4 0.00 0.00 0.00 50 1015.2
20260901191002 37 310 0.0 3.2 0.00 0.00 0.00 49 1015.4
20260901190502 38 127 1.6 4.8 0.00 0.00 0.00 48 1015.4
20260901190003 37 135 1.6 6.4 0.00 0.00 0.00 49 1015.6
20260901185502 38 127 1.6 8.0 0.00 0.00 0.00 48 1015.6
20260901185002 38 116 1.6 8.0 0.00 0.00 0.00 48 1015.7
20260901184502 38 126 1.6 4.8 0.00 0.00 0.00 49 1015.8
20260901184003 38 152 1.6 8.0 0.00 0.00 0.00 49 1015.9
20260901183502 37 130 1.6 8.0 0.00 0.00 0.00 49 1016.0
20260901183002 37 89 1.6 8.0 0.00 0.00 0.00 50 1016.1
20260901182503 37 103 1.6 4.8 0.00 0.00 0.00 49 1016.1
20260901182002 37 119 1.6 4.8 0.00 0.00 0.00 50 1016.2
20260901181502 37 102 1.6 4.8 0.00 0.00 0.00 50 1016.3
20260901181002 37 68 1.6 4.8 0.00 0.00 0.00 51 1016.4
20260901180502 37 70 1.6 3.2 0.00 0.00 0.00 50 1016.6
20260901180002 37 82 0.0 4.8 0.00 0.00 0.00 52 1016.6
20260901175503 37 92 1.6 4.8 0.00 0.00 0.00 52 1016.6
20260901175002 37 113 1.6 4.8 0.00 0.00 0.00 52 1016.7
20260901174502 36 86 1.6 6.4 0.00 0.00 0.00 52 1016.8
20260901173502 36 93 1.6 6.4 0.00 0.00 0.00 52 1016.9
20260901173003 37 108 0.0 6.4 0.00 0.00 0.00 52 1017.0
20260901172503 36 117 0.0 1.6 0.00 0.00 0.00 54 1017.1
20260901172002 36 333 0.0 3.2 0.00 0.00 0.00 56 1017.0
20260901171502 36 75 1.6 4.8 0.00 0.00 0.00 56 1017.0
20260901170502 36 76 0.0 4.8 0.00 0.00 0.00 56 1017.2
20260901165503 36 106 0.0 1.6 0.00 0.00 0.00 56 1017.3
20260901163502 35 108 0.0 3.2 0.00 0.00 0.00 59 1017.4
20260901162502 34 131 1.6 6.4 0.00 0.00 0.00 60 1017.4